Wind_Speed
4 4 4 4 4 5 5 6 6 6 6 6 6 6 6 6 6 6 6 7 9 10 12 13 15 15 15 15 16 16 16 16 16 15 15 14 13 13 12 12 12 12 12
5 6 6 5 5 6 6 6 6 6 6 6 6 6 6 5 5 5 5 5 6 8 10 11 12 13 14 15 15 16 16 16 16 16 16 16 15 14 13 13 12 11 11
7 7 8 8 7 8 8 7 7 6 6 6 6 5 5 5 4 4 4 4 4 5 7 8 10 11 13 14 14 15 16 16 16 16 16 16 16 15 14 13 12 11 10
9 10 10 10 10 10 10 9 9 8 7 7 6 6 5 5 4 4 4 4 4 4 5 6 8 9 11 12 13 14 14 15 15 15 15 15 15 15 14 13 12 10 9
11 11 12 12 12 12 12 12 12 11 10 9 8 7 7 6 5 5 4 4 4 3 3 4 5 6 8 10 11 12 12 13 13 14 13 13 14 14 13 12 11 10 8
12 13 13 14 15 14 14 15 15 14 13 12 11 10 9 8 7 7 6 5 4 4 3 3 4 4 6 7 8 9 9 10 11 12 11 11 11 11 10 10 9 8 7
14 14 14 15 16 17 17 17 17 17 17 16 15 13 12 11 10 9 8 7 6 5 4 3 3 3 4 5 5 6 6 7 8 8 8 8 8 8 7 7 7 7 7
16 15 16 17 18 18 20 20 20 20 19 19 18 17 16 14 13 12 10 9 8 7 5 4 4 3 3 3 4 4 5 5 6 6 6 7 6 6 6 5 5 6 6
19 19 18 18 19 18 19 20 21 21 22 22 22 21 20 18 16 15 14 12 11 10 8 7 5 4 4 4 3 4 4 5 5 6 6 6 5 5 5 5 5 6 6
23 23 23 23 21 21 20 21 22 22 22 23 24 23 22 21 20 19 18 16 15 13 12 10 8 7 6 5 5 4 4 5 5 6 6 6 6 6 6 6 6 7 7
29 28 28 29 28 27 26 25 25 24 24 24 24 24 24 22 21 21 20 20 18 17 15 14 12 10 8 7 7 6 5 6 6 6 6 6 6 6 6 7 7 7 7
32 33 34 34 34 34 33 32 32 30 28 27 25 24 25 25 24 23 22 22 22 20 19 17 15 14 12 10 9 8 8 7 7 7 7 7 7 7 7 7 8 7 7
34 34 35 36 36 37 37 38 39 37 35 33 31 29 27 27 26 25 24 25 25 24 22 20 19 18 16 15 13 12 11 10 9 9 9 9 9 8 8 7 8 8 7
33 34 35 36 36 37 38 39 40 41 40 39 37 35 34 33 30 28 27 25 26 27 26 24 22 21 20 19 18 16 14 13 12 11 11 10 10 9 9 8 8 8 8
30 31 32 33 34 35 36 37 38 39 40 41 41 40 38 37 35 34 32 30 28 27 28 27 25 24 23 22 21 20 18 17 16 15 13 13 12 11 10 10 9 9 8
28 29 29 30 30 31 32 33 34 35 37 38 40 41 41 40 39 37 36 34 31 29 28 28 27 26 25 25 25 24 22 21 19 18 17 16 14 13 12 11 11 10 9
24 25 26 27 28 28 28 29 31 32 34 35 36 38 39 41 41 41 40 38 36 33 31 31 29 29 28 27 27 27 26 25 24 22 21 19 18 16 15 14 13 12 11
22 23 23 23 24 25 25 26 27 28 30 32 34 35 36 38 40 41 42 41 40 38 36 34 32 30 30 29 30 29 29 29 28 26 25 23 22 20 18 17 16 15 13
20 20 20 20 20 21 21 22 23 25 27 29 31 33 35 37 38 40 41 42 43 42 40 38 35 33 31 31 31 30 29 31 31 30 29 27 25 24 22 21 19 18 16
18 19 19 18 18 18 18 18 19 21 23 25 28 30 32 34 36 38 40 42 43 43 42 40 38 36 35 33 32 32 31 30 32 33 33 31 29 28 26 25 23 22 20
19 19 19 18 17 16 16 16 17 18 19 21 23 26 29 31 33 35 38 40 42 43 42 42 41 40 39 37 36 34 33 32 33 34 35 34 33 32 30 29 27 26 24
19 19 19 18 17 16 16 16 16 16 16 18 19 21 24 27 29 32 34 37 39 41 42 42 42 42 42 40 39 38 37 34 33 34 36 37 37 36 34 33 31 30 28
20 20 20 19 17 17 16 15 14 13 13 14 16 18 20 23 26 29 32 34 37 39 40 41 41 42 42 42 41 40 39 37 35 36 35 38 38 38 37 36 35 34 32
20 20 20 20 18 17 17 16 15 13 12 12 12 13 16 18 21 24 28 31 34 37 39 40 41 41 42 42 42 42 42 40 39 37 37 37 39 39 40 39 37 36 35
20 20 20 20 20 19 18 17 16 15 13 12 12 11 12 14 16 19 23 27 30 33 37 39 40 41 42 42 42 43 45 45 43 41 40 39 39 39 41 41 41 39 38
20 20 20 20 20 20 19 17 16 15 14 13 12 12 11 11 13 15 17 22 25 29 32 36 38 40 41 42 42 43 44 45 45 45 43 41 40 39 40 42 42 41 40
Wind_Direction
216 204 193 185 184 180 173 167 161 159 154 151 150 151 156 164 175 184 197 211 217 222 225 230 232 234 235 236 234 234 238 243 246 251 254 259 267 275 281 289 297 303 306
237 229 224 218 212 206 199 192 185 179 171 166 163 162 161 163 169 177 190 205 215 222 225 229 232 233 234 236 236 237 240 242 247 251 253 257 264 270 276 283 291 295 297
251 244 238 234 230 226 220 215 209 202 196 189 182 178 176 172 172 178 186 199 212 220 225 229 231 232 234 235 237 239 241 243 247 251 252 256 261 265 270 277 283 285 286
266 258 251 242 238 237 234 229 226 222 217 211 206 199 196 194 190 189 194 201 210 219 225 228 229 232 235 236 237 240 242 244 246 249 251 253 256 260 264 270 274 275 275
274 268 261 254 246 243 241 238 236 235 232 228 224 219 216 214 211 208 208 210 215 219 223 226 228 231 234 235 237 239 242 244 245 245 248 249 252 256 260 263 264 259 259
285 274 265 260 254 248 245 243 241 240 238 236 235 232 230 229 227 225 223 223 225 226 226 227 229 230 232 234 235 236 237 237 238 239 242 244 249 252 254 255 250 246 244
298 288 276 269 263 252 247 245 245 245 243 241 240 239 237 236 235 235 234 233 234 233 230 227 226 226 227 230 231 227 225 224 227 230 229 233 238 242 243 243 236 231 229
289 285 280 275 272 264 253 249 248 248 247 246 243 242 242 241 240 239 239 239 239 238 236 232 228 225 219 217 216 212 210 207 209 212 213 214 218 221 219 213 208 208 207
284 282 277 277 273 269 264 258 255 253 250 248 247 244 243 242 242 242 241 241 241 241 240 237 235 229 221 210 201 192 185 186 186 188 191 193 196 196 192 185 184 182 182
279 278 275 274 273 269 266 264 262 259 256 251 250 249 248 246 246 244 243 242 242 242 242 241 239 235 228 218 203 192 184 180 179 180 180 180 181 177 173 171 169 168 168
278 275 273 272 271 269 267 264 264 261 258 258 257 255 253 251 251 249 248 243 241 241 242 241 240 239 234 227 215 201 189 181 178 181 178 174 170 164 161 164 163 162 162
279 277 275 273 270 268 266 264 264 264 261 260 261 259 255 252 251 251 249 246 241 239 240 241 240 239 237 234 225 213 199 191 184 183 179 175 170 166 164 164 162 159 157
280 278 277 275 272 270 267 265 265 265 263 261 260 260 256 253 252 252 252 250 244 239 239 240 239 239 239 237 231 222 212 202 196 192 188 184 180 176 173 171 167 162 161
283 280 278 277 274 272 270 268 267 266 265 263 261 260 258 257 255 256 253 253 249 241 238 239 238 237 237 237 234 228 221 213 208 203 200 195 190 186 185 182 177 171 168
288 286 283 280 277 274 271 269 267 266 264 263 262 261 259 258 258 256 254 253 251 245 241 239 238 238 237 236 234 231 227 222 217 212 208 205 201 197 194 190 186 181 177
292 290 288 285 283 279 275 271 268 266 265 263 262 261 259 258 257 256 254 254 253 249 243 240 239 239 238 237 235 233 230 227 223 219 215 213 210 207 203 200 196 192 188
303 298 294 291 287 283 278 273 269 266 263 262 261 260 259 257 256 255 254 253 252 251 246 244 241 241 241 239 235 233 232 230 227 224 221 218 216 214 211 209 205 202 199
314 309 303 297 292 289 284 278 272 267 263 260 259 258 257 256 255 254 252 252 251 250 249 247 244 244 244 242 239 235 233 232 229 227 224 223 221 219 218 216 214 212 210
325 322 317 311 303 297 290 284 277 271 265 262 259 258 256 255 254 253 251 250 250 250 249 248 246 247 246 245 242 236 235 233 231 229 227 226 225 224 223 222 221 220 219
337 334 330 324 317 309 301 293 285 278 272 266 262 259 257 254 253 252 250 248 248 249 248 248 247 248 247 246 245 243 239 236 233 231 230 229 228 228 227 226 226 225 224
347 344 341 337 332 326 317 307 298 289 281 274 268 262 258 255 253 251 250 249 248 247 247 247 246 247 247 247 247 247 245 242 236 233 232 231 231 230 229 229 230 229 229
351 350 349 346 344 339 333 323 312 301 291 282 275 268 261 257 254 251 249 248 248 247 246 246 246 246 245 246 246 246 245 245 241 237 235 233 233 231 231 232 231 231 231
356 355 354 353 352 349 345 339 330 319 306 295 284 274 266 261 256 252 249 248 248 248 247 247 246 246 245 245 244 244 245 245 244 241 238 236 234 233 233 233 233 233 233
358 358 358 358 356 354 351 350 346 339 330 317 303 289 277 268 262 255 250 249 248 248 248 248 248 247 245 244 243 242 243 243 243 242 240 239 236 234 234 234 235 235 235
360 0 360 360 0 359 356 355 354 351 344 335 325 312 294 279 270 262 255 251 249 248 247 247 247 247 246 245 244 243 242 242 242 242 242 242 239 236 235 236 235 236 236
3 4 4 4 5 5 4 2 0 358 354 348 339 330 316 300 285 273 263 256 253 251 249 247 247 247 246 246 245 243 243 242 242 243 243 243 240 239 238 237 237 237 237
Height
5915 5914 5913 5912 5911 5911 5910 5910 5909 5908 5907 5907 5906 5905 5904 5904 5903 5903 5902 5902 5902 5902 5902 5903 5903 5904 5905 5905 5906 5907 5908 5909 5909 5910 5910 5910 5911 5911 5911 5910 5910 5909 5909
5914 5913 5912 5911 5911 5910 5910 5909 5909 5908 5907 5907 5906 5905 5904 5904 5903 5902 5901 5901 5901 5901 5901 5901 5901 5902 5902 5903 5904 5905 5905 5906 5907 5907 5908 5908 5909 5909 5909 5909 5909 5908 5907
5913 5912 5911 5910 5910 5910 5909 5909 5908 5908 5907 5906 5906 5905 5904 5903 5902 5902 5901 5900 5900 5900 5899 5899 5899 5900 5900 5901 5902 5902 5903 5904 5904 5905 5905 5906 5906 5907 5907 5907 5907 5907 5906
5911 5910 5909 5909 5908 5908 5908 5908 5907 5907 5906 5906 5905 5904 5904 5903 5902 5901 5901 5900 5899 5899 5899 5898 5898 5898 5898 5899 5899 5900 5900 5901 5902 5902 5903 5903 5904 5904 5905 5905 5905 5905 5905
5909 5908 5908 5907 5906 5906 5906 5906 5906 5905 5905 5904 5904 5903 5903 5902 5901 5901 5900 5899 5899 5898 5898 5897 5897 5897 5897 5897 5897 5898 5898 5898 5899 5900 5900 5901 5901 5902 5902 5903 5903 5903 5903
5907 5906 5905 5904 5903 5903 5903 5903 5903 5903 5902 5902 5902 5901 5901 5901 5900 5900 5899 5899 5898 5898 5897 5897 5896 5896 5896 5896 5896 5896 5896 5896 5897 5897 5898 5899 5899 5900 5900 5901 5901 5902 5902
5905 5903 5901 5901 5900 5899 5899 5899 5899 5899 5899 5899 5899 5899 5899 5899 5898 5898 5898 5898 5897 5897 5896 5896 5896 5895 5895 5895 5895 5895 5895 5895 5895 5895 5896 5897 5898 5898 5899 5899 5900 5900 5901
5902 5900 5898 5897 5896 5895 5895 5894 5894 5894 5894 5895 5895 5895 5895 5895 5896 5896 5896 5896 5896 5896 5896 5895 5895 5895 5894 5894 5894 5894 5894 5894 5894 5894 5895 5896 5896 5897 5898 5898 5899 5899 5900
5898 5896 5895 5893 5892 5891 5890 5890 5889 5889 5889 5890 5890 5890 5891 5891 5892 5893 5893 5894 5894 5894 5894 5894 5894 5894 5894 5893 5893 5893 5893 5893 5893 5894 5894 5895 5896 5897 5897 5898 5898 5899 5899
5894 5893 5891 5889 5888 5887 5886 5886 5885 5885 5884 5885 5885 5885 5886 5887 5887 5888 5889 5890 5891 5892 5892 5893 5893 5893 5893 5893 5893 5893 5893 5893 5893 5893 5894 5895 5896 5896 5897 5897 5898 5898 5899
5889 5887 5886 5884 5883 5882 5881 5881 5880 5880 5880 5880 5880 5880 5881 5882 5883 5884 5885 5886 5888 5888 5889 5890 5891 5892 5892 5892 5892 5892 5892 5892 5892 5893 5894 5894 5895 5896 5897 5897 5898 5899 5899
5882 5881 5879 5878 5877 5876 5875 5875 5874 5874 5875 5875 5875 5875 5876 5877 5878 5879 5880 5881 5883 5884 5885 5887 5888 5889 5890 5890 5890 5891 5891 5891 5892 5893 5893 5894 5895 5896 5897 5897 5898 5899 5899
5875 5873 5871 5870 5869 5868 5868 5867 5867 5868 5868 5869 5870 5870 5871 5871 5872 5873 5874 5876 5878 5879 5881 5882 5884 5885 5887 5888 5889 5889 5890 5890 5891 5892 5893 5894 5895 5895 5896 5897 5898 5899 5900
5868 5866 5864 5862 5861 5860 5859 5859 5859 5859 5860 5861 5863 5864 5865 5866 5867 5868 5869 5871 5872 5873 5875 5877 5879 5881 5882 5884 5886 5887 5888 5889 5890 5891 5892 5893 5894 5895 5896 5897 5898 5899 5899
5861 5858 5856 5854 5853 5852 5851 5850 5850 5851 5852 5853 5854 5855 5857 5859 5861 5862 5864 5865 5866 5867 5869 5871 5873 5876 5878 5879 5881 5883 5885 5887 5888 5889 5890 5892 5893 5894 5895 5896 5897 5898 5899
5854 5851 5849 5847 5845 5844 5843 5842 5842 5842 5843 5844 5845 5847 5849 5851 5853 5855 5857 5859 5860 5861 5863 5865 5868 5870 5872 5874 5876 5879 5881 5883 5885 5886 5888 5890 5891 5892 5894 5895 5896 5897 5898
5848 5845 5842 5840 5838 5836 5835 5835 5834 5834 5835 5836 5837 5838 5840 5842 5844 5847 5849 5852 5853 5855 5857 5859 5862 5864 5866 5868 5870 5873 5876 5879 5881 5883 5885 5887 5888 5890 5892 5893 5895 5896 5897
5843 5840 5837 5834 5832 5830 5828 5827 5827 5826 5827 5828 5829 5830 5831 5833 5835 5838 5841 5843 5846 5848 5851 5853 5856 5858 5860 5862 5864 5867 5870 5873 5876 5879 5881 5883 5885 5887 5889 5891 5892 5894 5896
5840 5836 5832 5829 5826 5824 5822 5820 5820 5819 5819 5820 5820 5822 5823 5825 5827 5829 5832 5835 5837 5840 5843 5846 5849 5852 5854 5856 5858 5860 5863 5866 5870 5873 5876 5878 5881 5883 5885 5887 5889 5891 5893
5838 5834 5830 5826 5823 5820 5817 5815 5814 5813 5813 5813 5813 5814 5815 5816 5818 5820 5823 5826 5828 5831 5835 5838 5841 5844 5847 5849 5851 5854 5857 5860 5863 5866 5870 5873 5876 5878 5881 5883 5885 5888 5890
5837 5832 5828 5824 5820 5816 5813 5811 5809 5808 5807 5806 5806 5806 5807 5808 5810 5812 5814 5817 5820 5823 5826 5830 5833 5836 5839 5842 5845 5848 5850 5853 5856 5860 5863 5866 5870 5873 5875 5878 5881 5883 5885
5835 5831 5826 5822 5818 5814 5811 5808 5805 5803 5802 5801 5800 5800 5800 5801 5803 5804 5806 5809 5811 5814 5817 5821 5824 5828 5831 5834 5838 5840 5843 5846 5849 5852 5855 5859 5862 5866 5869 5872 5875 5878 5880
5835 5830 5826 5821 5817 5813 5810 5806 5803 5800 5799 5797 5796 5795 5795 5795 5796 5797 5799 5801 5803 5806 5809 5812 5815 5819 5823 5826 5829 5833 5836 5839 5841 5844 5847 5851 5854 5858 5862 5865 5868 5871 5874
5834 5830 5825 5821 5816 5812 5809 5805 5801 5799 5796 5794 5792 5791 5790 5790 5790 5791 5792 5794 5796 5798 5801 5804 5807 5810 5814 5817 5820 5824 5828 5830 5833 5836 5839 5843 5846 5850 5854 5857 5861 5864 5867
5834 5830 5825 5821 5816 5812 5808 5804 5801 5798 5795 5792 5790 5788 5787 5786 5785 5785 5786 5787 5789 5791 5793 5795 5798 5801 5805 5808 5811 5815 5818 5821 5825 5828 5831 5835 5838 5842 5845 5849 5853 5856 5860
5834 5830 5825 5821 5816 5812 5807 5803 5800 5797 5794 5791 5789 5787 5785 5783 5782 5781 5781 5782 5783 5784 5785 5787 5790 5793 5796 5799 5802 5805 5808 5812 5816 5819 5823 5826 5829 5833 5836 5840 5844 5848 5852